TimeEST,TemperatureF,Dew PointF,Humidity,Sea Level PressureIn,VisibilityMPH,Wind Direction,Wind SpeedMPH,Gust SpeedMPH,PrecipitationIn,Events,Conditions,WindDirDegrees,DateUTC
12:05 AM,34.3,28.2,78,30.24,10.0,SSW,9.2,-,N/A,,Clear,200,2013-02-19 05:05:00
12:25 AM,34.7,28.4,78,30.24,10.0,SSW,9.2,-,N/A,,Clear,210,2013-02-19 05:25:00
12:45 AM,35.6,28.4,75,30.24,10.0,SSW,9.2,-,N/A,,Clear,200,2013-02-19 05:45:00
1:05 AM,35.6,28.4,75,30.23,10.0,SSW,8.1,-,N/A,,Clear,200,2013-02-19 06:05:00
1:25 AM,35.6,28.4,75,30.21,10.0,South,9.2,-,N/A,,Clear,190,2013-02-19 06:25:00
1:45 AM,35.4,27.1,72,30.19,10.0,South,8.1,-,N/A,,Clear,190,2013-02-19 06:45:00
2:05 AM,37.0,25.7,64,30.18,10.0,South,11.5,-,N/A,,Clear,190,2013-02-19 07:05:00
2:25 AM,36.9,26.6,66,30.18,10.0,SSW,9.2,-,N/A,,Clear,200,2013-02-19 07:25:00
2:45 AM,37.4,27.0,66,30.18,10.0,SSW,11.5,17.3,N/A,,Clear,200,2013-02-19 07:45:00
3:06 AM,37.0,28.2,70,30.18,10.0,SSW,11.5,-,N/A,,Clear,200,2013-02-19 08:06:00
3:26 AM,36.5,28.6,73,30.18,10.0,SSW,9.2,-,N/A,,Clear,210,2013-02-19 08:26:00
3:46 AM,36.3,28.4,73,30.17,10.0,SSW,8.1,16.1,N/A,,Clear,200,2013-02-19 08:46:00
4:06 AM,35.6,28.4,75,30.15,10.0,South,6.9,-,N/A,,Clear,190,2013-02-19 09:06:00
4:26 AM,35.8,27.9,73,30.14,10.0,SSW,9.2,-,N/A,,Clear,200,2013-02-19 09:26:00
4:46 AM,36.0,27.9,72,30.14,10.0,SSW,10.4,-,N/A,,Clear,200,2013-02-19 09:46:00
5:06 AM,35.6,28.4,75,30.14,10.0,SSW,11.5,-,N/A,,Clear,200,2013-02-19 10:06:00
5:26 AM,36.0,27.9,72,30.12,10.0,SSW,11.5,-,N/A,,Clear,200,2013-02-19 10:26:00
5:45 AM,35.6,28.4,75,30.11,10.0,South,11.5,17.3,N/A,,Clear,190,2013-02-19 10:45:00
5:46 AM,36.5,27.9,71,30.11,10.0,SSW,10.4,17.3,N/A,,Clear,200,2013-02-19 10:46:00
6:06 AM,36.3,28.6,74,30.11,10.0,SSW,12.7,-,N/A,,Clear,210,2013-02-19 11:06:00
6:26 AM,36.5,29.5,76,30.11,10.0,SSW,15.0,19.6,N/A,,Clear,200,2013-02-19 11:26:00
6:41 AM,36.1,30.2,79,30.11,10.0,SSW,15.0,-,N/A,,Clear,200,2013-02-19 11:41:00
6:55 AM,35.6,30.2,81,30.10,10.0,South,11.5,-,N/A,,Scattered Clouds,190,2013-02-19 11:55:00
7:52 AM,39.2,32.0,75,30.08,10.0,SSW,15.0,-,N/A,,Mostly Cloudy,200,2013-02-19 12:52:00
8:50 AM,39.2,32.0,75,30.06,10.0,SSW,12.7,-,N/A,,Mostly Cloudy,200,2013-02-19 13:50:00
9:55 AM,44.6,35.6,71,30.05,10.0,SSW,17.3,23.0,N/A,,Mostly Cloudy,210,2013-02-19 14:55:00
10:53 AM,44.6,35.6,71,30.02,10.0,SSW,13.8,18.4,N/A,,Overcast,200,2013-02-19 15:53:00
11:35 AM,44.6,37.4,76,30.00,10.0,South,12.7,19.6,N/A,Rain,Light Rain,190,2013-02-19 16:35:00
11:53 AM,44.6,39.2,81,29.98,7.0,SSW,9.2,-,N/A,Rain,Light Rain,200,2013-02-19 16:53:00
12:53 PM,44.6,42.8,93,29.94,6.0,SSW,10.4,17.3,N/A,Rain,Light Rain,200,2013-02-19 17:53:00
2:53 PM,44.6,44.6,100,29.85,5.0,SSW,11.5,17.3,N/A,Rain,Light Rain,200,2013-02-19 19:53:00
3:53 PM,44.6,44.6,100,29.80,5.0,SSW,11.5,-,N/A,,Drizzle,200,2013-02-19 20:53:00
8:53 PM,44.6,44.6,100,29.83,10.0,West,9.2,-,N/A,,Mostly Cloudy,260,2013-02-20 01:53:00
9:48 PM,42.1,42.1,100,29.86,10.0,NW,4.6,-,N/A,,Clear,310,2013-02-20 02:48:00
10:08 PM,41.4,41.4,100,29.86,10.0,WNW,5.8,-,N/A,,Clear,300,2013-02-20 03:08:00
10:28 PM,40.3,40.3,100,29.86,10.0,WNW,3.5,-,N/A,,Clear,290,2013-02-20 03:28:00
10:48 PM,40.5,36.9,87,29.86,10.0,NW,5.8,-,N/A,,Clear,320,2013-02-20 03:48:00
11:08 PM,37.6,34.7,89,29.87,10.0,North,5.8,-,N/A,,Clear,350,2013-02-20 04:08:00
11:28 PM,38.1,34.2,86,29.87,10.0,NNW,6.9,-,N/A,,Clear,340,2013-02-20 04:28:00
11:48 PM,37.4,32.0,81,29.87,10.0,NW,6.9,-,N/A,,Clear,320,2013-02-20 04:48:00